EW9626 Weather Reports


Display with metric or nautical units.
time (UTC)temp
F
wind
direction
speed
MPH
gust
MPH
rain 1hr
in
rain 24hr
in
rain mn
in
humidity
%
barometer
mb
20220118141650 63 119 4.0 10.0 0.00 0.00 0.00 79 1016.9
20220118140110 61 110 4.0 9.0 0.00 0.00 0.00 81 1016.9
20220118134618 61 118 3.0 10.0 0.00 0.00 0.00 82 1016.7
20220118133104 60 100 3.0 9.0 0.00 0.00 0.00 83 1016.7
20220118131610 59 93 3.0 8.0 0.00 0.00 0.00 83 1016.8
20220118130056 58 93 3.0 7.0 0.00 0.00 0.00 83 1016.8
20220118124650 58 107 2.0 8.0 0.00 0.00 0.00 82 1016.7
20220118123051 58 103 3.0 8.0 0.00 0.00 0.00 82 1016.7
20220118121548 58 110 2.0 8.0 0.00 0.00 0.00 81 1016.5
20220118120047 58 102 2.0 8.0 0.00 0.00 0.00 81 1016.6
20220118113057 58 115 2.0 6.0 0.00 0.00 0.00 81 1017.0
20220118111552 58 86 2.0 6.0 0.00 0.00 0.00 80 1016.5
20220118110028 58 119 2.0 6.0 0.00 0.00 0.00 80 1016.7
20220118104615 58 117 2.0 9.0 0.00 0.00 0.00 80 1016.5
20220118103023 58 106 2.0 7.0 0.00 0.00 0.00 79 1016.6
20220118101528 58 111 3.0 8.0 0.00 0.00 0.00 79 1016.7
20220118100101 58 120 3.0 7.0 0.00 0.00 0.00 79 1017.0
20220118094533 58 103 3.0 8.0 0.00 0.00 0.00 80 1017.1
20220118093025 57 86 2.0 8.0 0.00 0.00 0.00 80 1017.2
20220118091512 57 108 3.0 7.0 0.00 0.00 0.00 80 1017.4
20220118090007 57 114 2.0 4.0 0.00 0.00 0.00 79 1017.6
20220118084506 58 103 2.0 6.0 0.00 0.00 0.00 78 1017.8
20220118083005 58 123 3.0 7.0 0.00 0.00 0.00 78 1017.7
20220118081503 58 109 4.0 8.0 0.00 0.00 0.00 79 1017.9
20220118080131 57 121 3.0 8.0 0.00 0.00 0.00 79 1018.2
20220118074609 57 104 2.0 7.0 0.00 0.00 0.00 79 1018.4
20220118073134 56 115 2.0 6.0 0.00 0.00 0.00 79 1018.7
20220118071658 57 108 2.0 4.0 0.00 0.00 0.00 79 1018.7
20220118070100 56 105 2.0 4.0 0.00 0.00 0.00 79 1018.7
20220118064554 56 116 1.0 6.0 0.00 0.00 0.00 78 1018.9
20220118063153 57 115 1.0 6.0 0.00 0.00 0.00 77 1019.1
20220118061603 57 88 2.0 6.0 0.00 0.00 0.00 77 1019.2
20220118060052 56 117 3.0 6.0 0.00 0.00 0.00 77 1019.3
20220118054549 56 111 1.0 4.0 0.00 0.00 0.00 77 1019.6
20220118053148 57 115 1.0 3.0 0.00 0.00 0.00 76 1019.8
20220118051629 57 114 1.0 6.0 0.00 0.00 0.00 77 1019.9
20220118050312 56 101 1.0 4.0 0.00 0.00 0.00 78 1020.0
20220118044613 56 110 0.0 0.0 0.00 0.00 0.00 77 1020.1
20220118043108 57 109 0.0 4.0 0.00 0.00 0.00 76 1020.3
20220118041620 57 103 1.0 3.0 0.00 0.00 0.00 74 1020.2
20220118040106 58 99 1.0 7.0 0.00 0.00 0.00 74 1020.1
20220118034625 57 105 2.0 6.0 0.00 0.00 0.00 74 1020.0
20220118033105 58 113 0.0 4.0 0.00 0.00 0.00 73 1020.1
20220118031557 58 124 2.0 4.0 0.00 0.00 0.00 73 1020.1
20220118030108 58 119 1.0 6.0 0.00 0.00 0.00 72 1020.1
20220118024736 58 111 1.0 6.0 0.00 0.00 0.00 72 1020.0
20220118023108 57 88 2.0 6.0 0.00 0.00 0.00 72 1019.9
20220118021540 58 106 2.0 6.0 0.00 0.00 0.00 70 1019.8
20220118020058 58 89 1.0 6.0 0.00 0.00 0.00 69 1019.9
20220118014548 58 89 2.0 6.0 0.00 0.00 0.00 69 1019.8
20220118013043 59 94 2.0 6.0 0.00 0.00 0.00 68 1019.6
20220118011646 59 89 1.0 4.0 0.00 0.00 0.00 66 1019.5
20220118010105 60 90 1.0 4.0 0.00 0.00 0.00 65 1019.4
20220118004547 61 88 2.0 6.0 0.00 0.00 0.00 63 1019.3
20220118003138 61 82 2.0 5.0 0.00 0.00 0.00 61 1019.0
20220118001556 62 84 3.0 8.0 0.00 0.00 0.00 59 1019.0
20220118000044 64 80 2.0 6.0 0.00 0.00 0.00 57 1018.8
20220117234533 65 52 4.0 10.0 0.00 0.00 0.00 54 1019.2
20220117233112 66 93 3.0 9.0 0.00 0.00 0.00 52 1018.9
20220117231707 67 96 4.0 12.0 0.00 0.00 0.00 49 1018.9
20220117230035 68 49 5.0 13.0 0.00 0.00 0.00 46 1018.9
20220117224540 68 81 7.0 14.0 0.00 0.00 0.00 42 1018.9
20220117223106 69 125 8.0 12.0 0.00 0.00 0.00 37 1018.9
20220117221611 70 118 3.0 14.0 0.00 0.00 0.00 36 1018.9
20220117220026 70 87 6.0 11.0 0.00 0.00 0.00 36 1019.1
20220117214525 71 65 6.0 13.0 0.00 0.00 0.00 33 1019.1
20220117204559 72 92 4.0 12.0 0.00 0.00 0.00 30 1019.0
20220117201559 72 96 6.0 12.0 0.00 0.00 0.00 31 1019.1
20220117194743 72 125 3.0 11.0 0.00 0.00 0.00 32 1019.5
20220117193049 72 36 5.0 12.0 0.00 0.00 0.00 32 1020.0
20220117191620 72 110 4.0 12.0 0.00 0.00 0.00 31 1020.2
20220117190106 72 90 2.0 7.0 0.00 0.00 0.00 34 1020.5
20220117184605 72 56 5.0 11.0 0.00 0.00 0.00 34 1020.9
20220117183121 71 65 7.0 12.0 0.00 0.00 0.00 36 1021.1
20220117181608 71 115 5.0 11.0 0.00 0.00 0.00 35 1021.4
20220117180114 71 102 7.0 12.0 0.00 0.00 0.00 36 1021.6
20220117174558 70 94 3.0 11.0 0.00 0.00 0.00 40 1021.8
20220117173126 69 84 5.0 11.0 0.00 0.00 0.00 40 1022.0
20220117171600 69 88 5.0 11.0 0.00 0.00 0.00 42 1022.0
20220117170024 68 89 6.0 11.0 0.00 0.00 0.00 41 1022.2
20220117164527 67 67 3.0 12.0 0.00 0.00 0.00 43 1022.3
20220117163055 66 100 3.0 9.0 0.00 0.00 0.00 45 1022.2
20220117161506 65 75 3.0 7.0 0.00 0.00 0.00 50 1022.4
20220117160200 62 70 2.0 5.0 0.00 0.00 0.00 52 1022.4
20220117154646 60 100 0.0 0.0 0.00 0.00 0.00 55 1022.3
20220117153119 58 101 0.0 0.0 0.00 0.00 0.00 58 1022.3
20220117151635 55 101 0.0 0.0 0.00 0.00 0.00 63 1022.3
20220117150129 52 102 0.0 0.0 0.00 0.00 0.00 68 1022.3
20220117144608 48 100 0.0 0.0 0.00 0.00 0.00 76 1022.0
20220117143047 45 101 0.0 0.0 0.00 0.00 0.00 82 1021.8